Location: Unspecified
(51.0950°N, 12.9690°E)
Time: 18:30:33
(UTC+00:00)

BUGSAT 1 - Pass Details

Date: 21 May 2025
Orbit: 512 x 554 km, 98.1° (Epoch: 16 June)

Event Time Altitude Azimuth Distance (km) Brightness Sun altitude
Exits shadow 20:58:26 10° 200° (SSW) 1,728 ? -13.3°
Maximum altitude 21:01:44 31° 263° (W) 936 ? -13.6°
Drops below altitude 10° 21:05:06 10° 327° (NNW) 1,749 ? -13.8°
Sets 21:07:23 0° 338° (NNW) 2,640 ? -14.0°
